Retour au catalogue

SL-14 DEB

ActifPO
NORAD 45278·DEBRIS·🇷🇺 Russia

Lancé Aug 15, 1991 depuis Plesetsk Cosmodrome

Loading…

Prochains Passages (prochaines 24 heures)

TLE

FraisSource: Space-Track

Époque: Sep 14, 2026, 02:39 UTC

1 45278U 91056Q   26257.11053562  .00009859  00000-0  82842-2 0  9999
2 45278  82.5612 298.3375 0141597  44.8280 316.4215 13.83374445327794

Suivez SL-14 DEB en temps réel avec AllMySat

Download on the App Store